Terug naar catalogus

STARLINK-35688

ActiefCommunicatieVLEO
NORAD 67019·PAYLOAD·🇺🇸 United States

Gelanceerd Dec 10, 2025 vanaf Vandenberg Space Force Base

Loading…

Volgende Passages (komende 24 uur)

TLE

VersSource: CelesTrak SupGP

Epoch: Sep 15, 2026, 03:13 UTC

1 67019C 25293S   26258.13451389  .00056896  00000+0  47678-2 0  2586
2 67019  70.0020 336.9994 0003516 267.7836 315.2623 14.98303475    18

Volg STARLINK-35688 in realtime met AllMySat

Download on the App Store